Location: Boissay
(49.5200°N, 1.3569°E)
Time: 03:23:33
(UTC+00:00)

Daily predictions for brighter satellites

Satellite Brightness Start Highest point End
(mag) Time Altitude Azimuth Time Altitude Azimuth Time Altitude Azimuth
H-2A R/B 4.1 02:59:10 10° NE 03:02:39 22° E 03:02:39 22° E
NOSS 3-1 (A) 4.1 03:23:44 69° SSE 03:23:44 69° SSE 03:31:24 10° SE
Cosmos 1980 Rocket 3.6 03:23:21 32° ESE 03:24:03 33° ESE 03:29:00 10° NE
USA 281 4.0 03:22:07 10° ESE 03:28:19 47° NE 03:32:53 19° NNW
ATLAS 3B R/B 3.1 03:27:51 61° N 03:29:07 72° NE 03:36:53 10° SE
USA 267 3.8 03:32:11 10° ENE 03:38:22 47° N 03:38:49 46° N
Cosmos 1697 Rocket 3.3 03:42:44 51° NNE 03:42:44 51° NNE 03:46:57 10° NNE
ATLAS CENTAUR R/B 3.8 03:43:56 17° ENE 03:43:56 17° ENE 03:45:02 10° NE
Lacrosse 4 Rocket 3.6 03:49:00 20° SE 03:49:00 20° SE 03:50:24 10° SE
ATLAS 2AS CENTAUR R/B 2.6 03:47:22 82° SW 03:47:46 89° ESE 03:54:49 10° NE
Cosmos 1452 Rocket 4.2 03:52:05 49° NNE 03:52:05 49° NNE 03:55:54 10° NNE
Cosmos 1818 4.4 03:51:21 43° SE 03:52:12 46° ESE 03:57:25 10° NE
USA 59 Rocket 1.7 03:53:36 27° NE 03:53:36 27° NE 03:56:53 10° E
CZ-2C R/B 3.7 03:54:13 10° NNE 03:56:41 31° NNE 03:56:41 31° NNE
Cosmos 2263 Rocket 2.1 04:00:00 81° ESE 04:00:00 81° ESE 04:05:23 10° SSE
Cosmos 2082 3.7 04:03:03 61° N 04:04:00 76° ENE 04:09:40 10° SSE
Cosmos 2227 Rocket 4.5 04:13:54 11° S 04:13:54 11° S 04:14:02 10° S
Cosmos 2285 Rocket 4.4 04:11:34 45° SSW 04:11:34 45° SSW 04:16:05 10° S
Cosmos 2266 Rocket 4.1 04:04:22 10° S 04:10:46 79° E 04:17:11 10° NNE
BREEZE-M DEB (TANK) 3.5 04:14:05 38° E 04:14:05 38° E 04:17:14 10° E
NOSS 2-1 (E) 4.3 04:20:27 41° NNE 04:20:45 41° NE 04:25:11 10° ESE
SL-16 R/B 4.4 04:19:08 10° SSE 04:23:34 24° ESE 04:28:00 10° NE
USA 229 DEB 4.0 04:21:54 30° NW 04:26:00 84° NE 04:34:07 10° SE
USA 229 4.0 04:22:00 30° NW 04:26:07 83° NE 04:34:12 10° SE
Cosmos 1484 Rocket 3.7 04:24:26 10° NNE 04:27:49 42° E 04:30:40 13° S
Cosmos 304 Rocket 4.0 04:26:56 34° N 04:28:57 69° ENE 04:33:41 10° SSE
Cosmos 1655 Rocket 4.2 04:23:57 10° S 04:30:17 72° E 04:36:38 10° NNE
Cosmos 1110 Rocket 4.5 04:32:05 43° NNW 04:32:05 43° NNW 04:36:22 10° NNE
IRAS Rocket 4.1 04:28:16 10° NNE 04:33:48 86° WNW 04:39:20 10° SSW
S3M 3.9 04:29:05 10° NNW 04:35:17 63° W 04:41:21 10° S
Cosmos 2219 3.4 04:35:43 48° WSW 04:35:43 48° WSW 04:40:51 10° S
SKYMED 2 4.4 04:32:10 10° SE 04:36:22 50° ENE 04:40:35 10° N
BREEZE-M DEB (TANK) 4.1 04:39:15 14° SSE 04:39:31 14° SSE 04:41:07 10° ESE
H-2A R/B 2.0 04:37:54 10° N 04:42:48 53° WNW 04:43:09 52° W
BREEZE-M DEB (TANK) 3.4 04:45:30 36° S 04:45:30 36° S 04:50:30 10° ESE
PAYLOAD A 4.4 04:42:31 10° N 04:47:37 43° WNW 04:47:56 42° WNW
SL-8 R/B 4.3 04:49:43 30° SSW 04:51:38 49° SSE 04:56:13 10° E
Meteor 1-24 Rocket 3.5 04:46:36 10° SSW 04:52:02 66° WNW 04:57:22 10° N
ARIANE 5 R/B 4.4 04:48:54 10° NNE 04:53:22 31° E 04:57:51 10° SSE
ARGOS 3.1 04:48:29 10° NNE 04:53:57 88° ESE 04:59:22 10° SSW
Thor Agena Rocket 3.4 04:50:19 10° NNE 04:55:33 76° WNW 05:00:40 10° SSW
Meteor 2-20 Rocket 4.2 04:53:25 10° NNW 04:59:18 65° W 05:04:57 10° S
Cosmos 1844 Rocket 3.2 04:53:48 10° NNW 04:59:24 58° ENE 05:04:55 10° SE
NOSS 2-1 (C) 3.3 04:58:21 41° NW 04:59:40 85° NE 05:04:34 10° SE
Cosmos 2322 Rocket 4.2 04:58:14 10° SSE 05:03:04 30° ESE 05:07:55 10° NE
Sich 1 Rocket 3.7 05:00:33 10° N 05:05:01 77° ENE 05:09:32 10° SSE
H-2A R/B 4.4 05:04:34 10° NE 05:06:37 22° E 05:08:37 10° SSE
Cosmos 1980 Rocket 2.4 05:05:10 27° WSW 05:07:52 48° NW 05:13:19 10° NNE
IRS-1D 3.9 05:03:47 10° N 05:08:21 37° WNW 05:09:55 29° WSW
YAOGAN 11 4.3 05:06:14 10° SSE 05:10:34 74° ENE 05:15:00 10° NNW
Cosmos 2369 3.7 05:07:06 14° SW 05:11:57 61° WNW 05:17:34 10° NNE
USA 281 3.5 05:06:37 10° S 05:12:51 45° WSW 05:19:07 10° NW
Cosmos 1378 Rocket 3.4 05:11:16 10° SSW 05:15:41 80° W 05:20:06 10° N
FengYun 1-2 T 4.2 05:11:17 10° NNE 05:16:57 86° WNW 05:22:37 10° SSW
Cosmos 1674 Rocket 3.5 05:13:22 10° S 05:17:40 88° ESE 05:22:02 10° N
Cosmos 1025 Rocket 4.2 05:14:15 10° SSE 05:18:16 44° E 05:22:19 10° NNE
ATLAS CENTAUR R/B 2.1 05:18:23 28° NW 05:18:41 28° NW 05:22:04 10° NNE
Cosmos 371 Rocket 3.7 05:16:34 23° NW 05:18:58 40° WSW 05:23:28 10° S
ATLAS 3B R/B 3.5 05:15:09 21° WNW 05:19:30 37° WSW 05:26:20 10° S
Meteor 2-5 Rocket 4.1 05:15:09 10° SW 05:20:35 42° WNW 05:25:57 10° N
Okean 2 Rocket 3.0 05:16:12 10° NNW 05:20:41 72° W 05:25:06 10° S
USA 267 3.5 05:14:26 10° ESE 05:20:54 67° NNE 05:26:08 17° NW
ARIANE 6 FM1 Upper Stage 3.4 05:17:51 10° SSW 05:21:57 54° SE 05:26:08 10° NE
Cosmos 482 Debris 4.3 05:20:32 28° W 05:22:48 71° NNW 05:26:28 10° ENE
Cosmos 1503 Rocket 4.4 05:17:58 10° NNW 05:23:17 67° ENE 05:28:31 10° SSE
Cosmos 1939 Rocket 3.3 05:19:58 10° N 05:23:21 32° WNW 05:24:25 27° WSW
Lacrosse 4 Rocket 3.0 05:24:51 18° WSW 05:24:51 18° WSW 05:26:59 10° SSW
Cosmos 1486 Rocket 3.9 05:18:50 10° NNW 05:24:04 83° WSW 05:29:17 10° SSE
COSMO-SKYMED 1 2.6 05:20:09 10° S 05:24:24 56° W 05:28:42 10° NNW
Cosmos 1992 Rocket 3.9 05:19:21 10° SSW 05:24:32 68° WNW 05:29:46 10° NNE
Cosmos 332 Rocket 3.8 05:19:46 10° NNW 05:24:42 86° ENE 05:29:34 10° SSE
NOAA 12 4.1 05:20:27 10° NNE 05:25:49 87° ESE 05:31:09 10° SSW
Cosmos 1697 Rocket 3.9 05:24:29 21° WNW 05:25:57 23° NW 05:30:26 10° NNE
Cosmos 1844 3.8 05:22:27 10° NNW 05:28:09 81° ENE 05:33:52 10° SSE
NOSS 2-1 (D) 3.7 05:29:47 23° WNW 05:31:59 53° SW 05:36:57 10° SSE
Cosmos 2098 Rocket 2.4 05:28:19 10° N 05:32:14 84° W 05:35:30 10° S
Cosmos 2227 4.3 05:28:49 10° NW 05:34:22 58° WSW 05:39:56 10° S
Cosmos 1818 4.0 05:32:02 17° WSW 05:35:50 42° NW 05:41:04 10° NNE
SJ-11-01 4.2 05:31:27 10° NNE 05:36:07 80° WNW 05:40:46 10° SSW
CZ-2C R/B 4.1 05:33:50 10° NNW 05:35:57 15° NW 05:35:57 15° NW
ATLAS 2AS CENTAUR R/B 3.5 05:34:49 18° W 05:39:28 35° NNW 05:45:47 10° NE
CRYOSAT 2 4.3 05:34:40 10° S 05:39:33 81° W 05:44:28 10° N
USA 59 Rocket 0.5 05:39:52 19° WNW 05:42:27 46° SW 05:47:27 10° SSE
Cosmos 2263 Rocket 3.5 05:41:46 17° W 05:42:54 18° W 05:46:29 10° SW
NOSS 3 (A) 3.2 05:42:42 31° SSW 05:43:15 62° SE 05:44:47 10° NE
Cosmos 1455 Rocket 3.6 05:39:07 10° N 05:43:28 62° ENE 05:47:45 10° SSE
Nadezhda 1 Rocket 4.1 05:38:04 10° N 05:44:17 83° E 05:50:22 10° S
CBERS-1 4.3 05:41:20 10° N 05:46:13 46° WNW 05:51:05 10° SW
Cosmos 2237 4.2 05:41:51 10° SW 05:47:31 73° WNW 05:53:14 10° NNE
SL-08 R/B 4.4 05:45:26 10° SSW 05:51:32 73° W 05:57:43 10° N
Cosmos 1869 3.7 05:47:48 10° N 05:51:36 63° E 05:55:22 10° SSE
Cosmos 2151 Rocket 4.4 05:49:49 10° NNW 05:53:42 30° W 05:57:35 10° SSW
Cosmos 1437 Rocket 3.3 05:51:38 10° SW 05:54:52 31° WNW 05:58:09 10° N
Cosmos 2360 Rocket 2.9 05:49:24 10° S 05:54:53 58° ESE 06:00:25 10° NE
SL-08 RB Rocket 4.5 05:56:40 10° N 06:00:39 30° WNW 06:04:39 10° SW
Cosmos 1484 Rocket 4.1 05:58:43 10° NNW 06:01:01 17° WNW 06:03:19 10° WSW
DMSP B5D1-3 4.5 05:56:52 10° S 06:01:57 70° WSW 06:07:05 10° NNW
Cosmos 1606 2.3 05:58:46 10° NNW 06:02:09 63° W 06:05:28 10° S
Okean 1 Rocket 3.5 05:57:58 10° NNW 06:02:09 40° W 06:06:19 10° SSW
Cosmos 1354 Rocket 4.0 05:57:58 10° NNW 06:03:19 81° WSW 06:08:35 10° SSE
BREEZE-M DEB (TANK) 2.5 05:59:20 11° W 06:04:34 82° SSW 06:06:46 10° ESE
Cosmos 2084 Rocket 3.4 06:01:01 10° SW 06:05:19 68° NW 06:09:30 10° NE
SL-16 R/B 2.2 06:01:33 10° SW 06:07:11 65° WNW 06:12:51 10° NNE
Cosmos 292 Rocket 3.9 06:04:03 10° NNW 06:08:54 84° ENE 06:13:43 10° SSE
Gbstr 26 Del rocket 3.5 06:05:36 10° WSW 06:10:22 89° S 06:16:21 10° ENE
CZ-2D R/B 3.0 06:07:41 10° N 06:11:12 64° WNW 06:14:40 10° SSW
TRACE 4.4 06:10:38 10° S 06:13:49 54° W 06:17:03 10° NNW
EXPRESS MD2 3.4 06:10:58 10° SW 06:13:57 42° SSE 06:16:09 10° E
ADEOS Rocket 3.5 06:07:37 10° NNE 06:15:00 84° ESE 06:21:36 10° SSW
Cosmos 2228 4.2 06:12:44 10° N 06:16:44 43° ENE 06:20:42 10° SSE
CZ-2D R/B 3.3 06:12:51 10° NNE 06:16:48 83° WNW 06:20:47 10° SSW
SJ-12 4.0 06:15:32 10° N 06:19:22 50° WNW 06:23:11 10° SSW
USA 290 3.8 06:19:30 10° N 06:22:25 33° ENE 06:25:16 10° SE
Cosmos 990 Rocket 4.1 06:19:35 10° NNW 06:24:46 84° ENE 06:29:54 10° SSE
USA 215 3.4 06:21:46 10° ENE 06:28:20 83° SE 06:34:53 10° SW
